EC1ABR Weather Reports


time (UTC)temp
F
wind
direction
speed
knots
gust
knots
rain 1hr
in
rain 24hr
in
rain mn
in
humidity
%
barometer
mb
20260504214504 48 0 0.0 0.0 0.00 0.00 0.00 90 1016.6
20260504213603 48 0 0.0 0.0 0.00 0.00 0.00 90 1016.7
20260504212703 49 0 0.0 0.0 0.00 0.00 0.00 90 1016.6
20260504211803 49 0 0.0 0.0 0.00 0.00 0.00 90 1016.6
20260504210903 50 0 0.0 0.0 0.00 0.00 0.00 90 1016.5
20260504210004 50 0 0.0 0.0 0.00 0.00 0.00 90 1016.4
20260504205404 50 0 0.0 0.0 0.00 0.00 0.00 90 1016.5
20260504204503 51 0 0.0 0.0 0.00 0.00 0.00 89 1016.1
20260504203816 51 0 0.0 0.0 0.00 0.00 0.00 89 1016.1
20260504202703 51 0 0.0 0.0 0.00 0.00 0.00 88 1015.7
20260504201803 52 0 0.0 0.0 0.00 0.00 0.00 87 1015.6
20260504200903 52 0 0.0 0.0 0.00 0.00 0.00 87 1015.7
20260504200004 53 0 0.0 0.0 0.00 0.00 0.00 86 1015.5
20260504195617 53 0 0.0 0.0 0.00 0.00 0.00 85 1015.5
20260504194503 54 0 0.0 0.0 0.00 0.00 0.00 84 1015.6
20260504193817 55 0 0.0 0.0 0.00 0.00 0.00 81 1015.5
20260504192703 56 0 0.0 0.0 0.00 0.00 0.00 80 1015.3
20260504191803 56 0 0.0 0.0 0.00 0.00 0.00 79 1015.1
20260504190904 56 0 0.0 0.0 0.00 0.00 0.00 80 1014.7
20260504190004 56 0 0.0 0.0 0.00 0.00 0.00 80 1014.7
20260504185403 56 0 0.0 0.0 0.00 0.00 0.00 81 1014.8
20260504184503 56 0 0.0 0.0 0.00 0.00 0.00 82 1014.5
20260504183603 56 0 0.0 0.0 0.00 0.00 0.00 82 1014.3
20260504182703 56 0 0.0 0.0 0.00 0.00 0.00 82 1014.4
20260504181804 56 0 0.0 0.0 0.00 0.00 0.00 82 1014.3
20260504180904 56 0 0.0 0.0 0.00 0.00 0.00 82 1014.4
20260504180004 56 0 0.0 0.0 0.00 0.00 0.00 82 1014.4
20260504175403 55 0 0.0 0.0 0.00 0.00 0.00 82 1014.3
20260504174503 55 0 0.0 0.0 0.00 0.00 0.00 83 1014.2
20260504173603 55 0 0.0 0.0 0.00 0.00 0.00 84 1014.3
20260504172704 55 0 0.0 0.0 0.00 0.00 0.00 84 1014.2
20260504172013 56 0 0.0 0.0 0.00 0.00 0.00 83 1014.2
20260504170903 56 0 0.0 0.0 0.00 0.00 0.00 81 1014.1
20260504160213 55 0 0.0 0.0 0.00 0.00 0.00 78 1014.1
20260504150903 56 0 0.0 0.0 0.00 0.00 0.00 83 1013.8
20260504140903 55 0 0.0 0.0 0.00 0.00 0.00 82 1013.5
20260504140214 55 0 0.0 0.0 0.00 0.00 0.00 82 1013.5
20260504110216 55 0 0.0 0.0 0.00 0.00 0.00 81 1014.2
20260504081803 54 0 0.0 0.0 0.00 0.00 0.00 98 1014.0
20260504081116 54 0 0.0 0.0 0.00 0.00 0.00 99 1014.0
20260504080213 53 0 0.0 0.0 0.00 0.00 0.00 99 1014.0
20260504050004 47 0 0.0 0.0 0.00 0.00 0.00 98 1013.3
20260504045404 47 0 0.0 0.0 0.00 0.00 0.00 98 1013.1
20260504044504 47 0 0.0 0.0 0.00 0.00 0.00 98 1013.4
20260504043603 47 0 0.0 0.0 0.00 0.00 0.00 98 1013.5
20260504042703 47 0 0.0 0.0 0.00 0.00 0.00 98 1013.4
20260504041804 47 0 0.0 0.0 0.00 0.00 0.00 98 1013.5
20260504040903 47 0 0.0 0.0 0.00 0.00 0.00 97 1013.4
20260504040004 47 0 0.0 0.0 0.00 0.00 0.00 97 1013.6
20260504035403 47 0 0.0 0.0 0.00 0.00 0.00 97 1013.5
20260504034503 47 0 0.0 0.0 0.00 0.00 0.00 97 1013.5
20260504033603 47 0 0.0 0.0 0.00 0.00 0.00 97 1013.6
20260504032703 47 0 0.0 0.0 0.00 0.00 0.00 97 1013.5
20260504031804 47 0 0.0 0.0 0.00 0.00 0.00 97 1013.4
20260504031114 47 0 0.0 0.0 0.00 0.00 0.00 97 1013.6
20260504030004 47 0 0.0 0.0 0.00 0.00 0.00 97 1013.7
20260504025403 47 0 0.0 0.0 0.00 0.00 0.00 97 1013.8
20260504024503 47 0 0.0 0.0 0.00 0.00 0.00 97 1013.7
20260504023813 47 0 0.0 0.0 0.00 0.00 0.00 96 1013.8
20260504022704 47 0 0.0 0.0 0.00 0.00 0.00 96 1013.7
20260504022018 47 0 0.0 0.0 0.00 0.00 0.00 96 1013.8
20260504021115 47 0 0.0 0.0 0.00 0.00 0.00 96 1014.0
20260504020004 47 0 0.0 0.0 0.00 0.00 0.00 96 1014.0
20260504015403 47 0 0.0 0.0 0.00 0.00 0.00 96 1013.9
20260504014503 48 0 0.0 0.0 0.00 0.00 0.00 96 1014.0
20260504013604 48 0 0.0 0.0 0.00 0.00 0.00 95 1014.2
20260504012916 48 0 0.0 0.0 0.00 0.00 0.00 95 1014.2
20260504011803 48 0 0.0 0.0 0.00 0.00 0.00 95 1014.1
20260504010903 48 0 0.0 0.0 0.00 0.00 0.00 95 1014.2
20260504010213 48 0 0.0 0.0 0.00 0.00 0.00 95 1014.3
20260504005403 49 0 0.0 0.0 0.00 0.00 0.00 95 1014.3
20260504004503 49 0 0.0 0.0 0.00 0.00 0.00 95 1014.3
20260504003604 49 0 0.0 0.0 0.00 0.00 0.00 95 1014.5
20260504002703 50 0 0.0 0.0 0.00 0.00 0.00 95 1014.4
20260504002014 50 0 0.0 0.0 0.00 0.00 0.00 95 1014.4
20260504001116 50 0 0.0 0.0 0.00 0.00 0.00 95 1014.7
20260504000003 51 0 0.0 0.0 0.00 0.00 0.00 95 1014.7
20260503235403 51 0 0.0 0.0 0.00 0.00 0.00 95 1015.0
20260503234504 51 0 0.0 0.0 0.00 0.00 0.00 95 1014.9
20260503233814 51 0 0.0 0.0 0.00 0.00 0.00 95 1014.8
20260503232703 52 0 0.0 0.0 0.00 0.00 0.00 95 1014.9
20260503231803 52 0 0.0 0.0 0.00 0.00 0.00 95 1015.0
20260503230903 52 0 0.0 0.0 0.00 0.00 0.00 95 1015.0
20260503230008 52 0 0.0 0.0 0.00 0.00 0.00 95 1015.4
20260503225404 53 0 0.0 0.0 0.00 0.00 0.00 94 1015.4
20260503224503 53 0 0.0 0.0 0.00 0.00 0.00 94 1015.6
20260503223603 53 0 0.0 0.0 0.00 0.00 0.00 94 1015.8
20260503222703 53 0 0.0 0.0 0.00 0.00 0.00 94 1015.8
20260503221803 53 0 0.0 0.0 0.00 0.00 0.00 94 1015.8
20260503220903 53 0 0.0 0.0 0.00 0.00 0.00 94 1015.4
20260503220004 53 0 0.0 0.0 0.00 0.00 0.00 94 1015.6
20260503215403 53 0 0.0 0.0 0.00 0.00 0.00 94 1015.3